星链-5292 (STARLINK-5292 )

导读

STARLINK-5292是美国SpaceX公司星链(Starlink)星座中的一颗互联网卫星,于2023年1月19日由猎鹰9号火箭发射升空。作为星链星座组网卫星,它运行在近地轨道,旨在为全球提供高速低延迟的卫星互联网接入服务,助力星链实现全球覆盖的目标,目前已在轨运行超3年,服务全球数百万用户。

基本信息
目录编号:
55308
目录名称:
STARLINK-5292
国际标识:
2023-010AR
轨道中心:
EARTH
卫星名称:
星链-5292
卫星全名:
星链-5292 (STARLINK-5292 )
卫星状态:
已陨落 最后检测时间 2025-04-16
发射日期:
2023-01-19 UTC
国别 :
美国 (US)
星等 :
--
该卫星已列入 空间交会检测服务 Space Conjunction Data Service (SCDS) ,当前飞行风险评估等级: 无高风险
轨道信息
数据来源 国际轨道数据
星历时间: 2025-04-16T19:47:04+0800
轨道信息已过期514天
半长轴: 6522.807km
偏心率: 0.0011093
轨道倾角: 69.984°
近地点辐角 256.163°
升交点赤经 94.056°
平近点角 246.067°
近地点: 137.436km
远地点: 151.908km
周期: 87.380分钟
每日圈数: 16.479766
详细信息
固有亮度:
5
最大亮度:
2.5
卫星平台:
Starlink v1.5
覆盖范围:
全球
运营商:
太空探索技术公司
运营商所在国:
美国
制造商(研发单位):
太空探索技术公司
制造商所在国:
美国
使用方式:
暂无
卫星简介
星链(Starlink)计划是由太空探索技术公司(SpaceX)提出的一个巨型低轨卫星互联网星座项目,计划在2019年至2024年间在太空搭建由约1.2万颗卫星组成的“星链”网络,其中1584颗将部署在地球上空550千米处的近地轨道,并从2020年开始工作。该卫星仍在工作。
与全量物体交会距离演化趋势
与全量物体交会风险概率演化趋势